CAPE
2 2 1 2 3 3 3 4 3 2 2 2 0 4 6 0 0 0 0 0 0 0 0 0 0 0 0 0 0 0 0 0 0 0 0 0 0 0 0 0 0 0 0 856 1239
4 2 4 2 2 3 3 4 4 7 4 4 0 2 1 0 0 0 0 0 0 0 0 0 0 0 0 0 0 0 0 0 0 0 0 0 0 0 0 0 0 0 447 1025 1472
1 4 2 2 5 1 1 1 0 4 4 2 0 0 0 0 0 0 0 0 0 0 0 0 0 0 0 0 0 0 0 0 0 0 0 0 0 0 0 0 0 0 53 916 1397
3 1 2 1 1 1 1 1 1 2 2 2 0 0 0 0 0 0 0 0 0 0 0 0 0 0 0 0 0 0 0 0 0 0 0 0 0 0 0 0 0 0 0 696 1187
3 1 1 0 1 1 1 1 0 2 1 2 0 0 0 0 0 0 0 0 0 0 0 0 0 0 0 0 0 0 0 0 0 0 0 0 0 0 0 0 0 0 181 827 1125
2 2 2 2 1 1 2 1 1 1 2 0 0 0 0 0 0 0 0 0 0 0 0 1 0 0 0 0 0 0 0 0 0 0 0 0 0 0 0 0 0 0 0 5 765
1 4 1 1 1 1 1 0 1 1 1 0 0 0 0 0 0 0 0 0 0 0 0 0 5 0 0 0 0 0 0 0 0 0 0 0 0 0 0 0 0 0 0 0 0
1 1 2 1 1 1 2 2 1 0 0 0 0 0 0 0 0 0 0 0 0 0 0 0 0 5 3 0 0 0 0 0 0 0 0 0 0 0 0 0 0 0 0 0 47
1 1 2 0 0 1 0 0 0 0 0 0 0 0 0 0 0 0 0 0 0 0 0 0 0 8 21 4 3 0 0 0 0 0 0 0 0 0 0 0 0 0 0 0 113
1 1 0 1 0 1 0 0 0 0 0 0 0 0 0 0 0 0 0 0 0 0 0 0 5 12 23 21 1 0 0 0 0 0 0 0 0 0 0 0 0 0 0 0 173
0 1 0 2 0 0 0 0 0 0 0 0 0 0 0 0 0 0 0 0 0 10 12 0 11 16 15 29 28 41 8 0 0 0 0 0 0 0 0 0 0 0 0 0 138
0 0 0 1 0 0 0 0 0 0 0 0 0 0 0 0 0 7 0 0 5 17 4 5 4 10 1 1 2 53 28 23 16 0 0 0 0 0 0 0 0 0 0 0 99
0 0 0 0 0 0 0 0 0 0 0 0 0 0 0 0 1 20 0 1 1 4 10 6 10 0 0 0 9 37 42 35 42 0 0 0 0 0 0 0 0 0 0 0 19
0 0 0 0 0 0 0 0 0 0 0 0 0 4 0 0 1 4 0 6 7 5 5 6 10 2 7 8 39 3 0 16 78 26 0 0 0 0 0 0 0 0 0 0 117
0 0 0 0 0 0 0 0 0 0 0 0 0 0 0 2 2 12 0 10 2 16 19 15 6 1 1 18 30 3 0 60 148 1 0 0 0 0 0 0 0 0 0 0 95
0 0 0 0 0 0 0 0 0 0 0 0 0 0 0 13 36 19 0 1 0 1 21 4 2 5 26 47 44 1 0 50 126 32 17 2 0 0 0 0 0 0 0 0 95
0 0 0 0 0 0 0 0 0 0 0 0 0 0 16 22 3 4 24 23 13 13 45 15 13 1 11 31 36 11 83 52 32 64 0 0 0 0 0 0 0 0 0 0 172
0 0 0 0 0 0 0 0 0 0 0 0 4 0 17 7 2 23 24 64 9 10 7 59 35 17 10 29 6 0 67 60 31 0 24 0 0 0 0 0 0 0 0 0 161
0 0 0 0 0 0 0 0 0 0 0 3 4 1 9 12 21 17 1 45 15 27 21 39 50 0 16 5 16 21 3 57 80 37 10 0 0 0 0 0 0 0 0 0 45
0 0 0 0 0 0 0 0 0 0 0 0 9 15 11 7 6 9 2 3 2 2 58 49 67 12 11 13 43 59 50 23 69 2 12 0 0 0 0 0 0 0 0 0 221
0 0 0 0 0 0 0 0 0 0 0 0 2 20 17 15 18 11 1 1 3 2 0 49 105 7 18 45 74 34 75 44 110 85 32 0 21 87 99 60 0 0 0 19 320
0 0 0 0 0 0 0 0 0 0 0 0 0 8 10 13 6 5 7 3 1 6 3 119 140 33 25 61 74 32 49 123 109 18 9 22 72 259 163 115 76 2 7 94 430
0 0 0 0 0 0 0 0 0 0 0 0 0 0 7 6 0 1 6 4 0 0 4 40 126 58 43 8 1 43 31 44 17 20 65 45 30 106 94 124 234 134 23 16 787
0 0 0 0 0 0 0 0 0 0 0 0 0 8 0 0 0 1 2 1 0 0 0 8 194 169 105 36 14 33 39 42 56 57 30 18 2 97 133 129 273 366 280 27 209
0 0 0 0 0 0 0 0 0 0 0 0 0 0 1 3 0 4 0 0 0 0 0 1 52 89 194 106 10 32 15 8 25 29 17 20 9 265 272 112 162 253 414 5 0
0 0 0 0 0 0 0 0 0 0 0 0 0 0 2 7 4 0 0 0 0 0 0 1 0 1 68 77 36 15 22 13 10 0 0 22 101 352 188 89 34 1 7 132 57
0 0 0 0 0 0 0 0 0 0 0 0 1 1 0 5 2 0 1 0 0 0 0 3 3 7 21 60 32 13 15 18 3 0 12 109 335 251 45 2 1 3 0 0 0
CIN
0 -1 0 0 0 0 0 0 0 0 0 -1 0 -1 -2 0 0 0 0 0 0 0 0 0 0 0 0 0 0 0 0 0 0 0 0 0 0 0 0 0 0 0 0 -106 -207
0 0 0 0 0 0 0 0 0 0 0 0 0 0 0 0 0 0 0 0 0 0 0 0 0 0 0 0 0 0 0 0 0 0 0 0 0 0 0 0 0 0 -104 -154 -173
0 0 0 0 0 0 0 0 0 0 0 0 0 0 0 0 0 0 0 0 0 0 0 0 0 0 0 0 0 0 0 0 0 0 0 0 0 0 0 0 0 0 -30 -140 -151
0 0 0 0 0 0 0 0 0 0 0 0 0 0 0 0 0 0 0 0 0 0 0 0 0 0 0 0 0 0 0 0 0 0 0 0 0 0 0 0 0 0 0 -86 -116
0 0 0 0 0 0 0 0 0 0 0 0 0 0 0 0 0 0 0 0 0 0 0 0 0 0 0 0 0 0 0 0 0 0 0 0 0 0 0 0 0 0 -61 -73 -71
0 0 0 0 0 0 0 -1 0 0 0 0 0 0 0 0 0 0 0 0 0 0 0 -1 0 0 0 0 0 0 0 0 0 0 0 0 0 0 0 0 0 0 0 -31 -75
0 0 0 0 0 0 0 0 0 0 0 0 0 0 0 0 0 0 0 0 0 0 0 0 -2 -1 0 0 0 0 0 0 0 0 0 0 0 0 0 0 0 0 0 0 0
0 0 0 0 0 0 0 0 0 0 0 0 0 0 0 0 0 0 0 0 0 0 0 0 0 -3 -2 -1 0 0 0 0 0 0 0 0 0 0 0 0 0 0 0 0 -151
0 0 0 0 0 0 0 0 0 0 0 0 0 0 0 0 0 0 0 0 0 0 0 0 0 -2 -2 -4 -4 0 0 0 0 0 0 0 0 0 0 0 0 0 0 0 -162
0 0 0 0 0 0 0 0 0 0 -1 0 0 0 0 0 0 0 0 0 0 0 0 0 -1 -3 -3 -3 -1 0 0 0 0 0 0 0 0 0 0 0 0 0 0 0 -139
0 0 0 0 0 0 0 0 0 0 0 0 0 0 0 0 0 -1 0 0 0 -1 -2 -1 -2 -1 -1 -5 -3 -6 -6 0 0 0 0 0 0 0 0 0 0 0 0 0 -138
0 0 0 0 0 0 0 0 0 0 0 0 0 0 0 0 0 -1 0 0 -1 -2 -6 -5 -2 -7 -13 -1 -3 -5 -6 -6 -5 0 0 0 0 0 0 0 0 0 0 0 -115
0 0 0 0 0 0 0 0 0 0 -1 0 0 0 0 0 -1 -1 -1 -1 -2 -2 -3 -5 -4 0 0 0 -3 -5 -7 -5 -5 0 0 0 0 0 0 0 0 0 0 0 -165
0 0 0 0 0 0 0 0 0 0 -1 0 0 -3 0 0 -1 -6 0 -1 -2 -2 -3 -4 -5 -2 -1 -6 -32 -12 -2 -25 -16 -7 0 0 0 0 0 0 0 0 0 0 -147
0 0 0 0 0 0 0 0 0 0 0 0 0 0 0 -2 -1 -2 0 -1 -2 -2 -2 -15 -1 -1 -1 -3 -3 -5 0 -11 -4 -1 -2 0 0 0 0 0 0 0 0 0 -190
0 0 0 0 0 0 0 0 0 0 0 0 0 -3 -2 -2 -2 -2 0 -1 0 -10 -3 -7 -2 -2 -3 -4 -5 -4 0 -43 -4 -6 -6 -4 0 0 0 0 0 0 0 0 -179
0 0 0 0 0 0 0 0 0 0 0 0 0 0 -4 -1 -1 -7 -2 -2 -2 -2 -4 -2 -2 -3 -7 -1 -5 -8 -2 -3 -5 -6 -3 0 0 0 0 0 0 0 0 0 -122
0 0 0 0 0 0 0 0 0 0 0 -1 -3 0 -3 -2 0 -3 -2 -2 -4 -5 -5 -3 -11 -32 -22 -4 -3 0 -9 -13 -4 -1 -12 0 0 0 0 0 0 0 0 0 -102
0 0 0 0 0 0 0 0 0 0 0 -2 -3 -2 -2 -2 -2 0 -1 -1 -5 -2 -1 -2 -2 -1 -17 -16 -6 -25 -65 -25 -9 -4 -10 0 0 0 0 0 0 0 0 0 -119
0 0 0 0 0 0 0 0 0 0 0 -1 -2 -2 -3 -1 -4 -5 0 0 0 0 -1 -3 -3 -1 -3 -17 -6 -13 -9 -17 -7 -5 -7 0 0 0 0 0 0 0 0 0 -67
0 0 0 0 0 0 0 0 0 0 0 0 -1 -2 -3 -1 -1 -2 -1 0 0 0 0 -2 -2 -2 -2 -7 -7 -6 -8 -6 -11 -10 -13 -3 -5 -28 -17 -40 0 0 0 -54 -54
0 0 0 0 0 0 0 0 0 0 0 0 -1 -3 -1 -2 -2 -2 -2 0 0 0 0 -1 -2 -3 -4 -3 -10 -6 -11 -4 -10 -5 -14 -5 -9 -10 -26 -37 -57 -112 -124 -63 -39
0 0 0 0 0 0 0 0 0 0 0 0 0 0 -2 -3 -1 -1 -2 -4 -1 0 0 -15 -8 -4 -7 -27 -8 -4 -4 -5 -8 -20 -4 -4 -5 -51 -52 -47 -50 -60 -87 -116 -49
0 0 0 0 0 0 0 0 0 0 0 0 0 -1 -1 0 -2 -1 -4 -2 0 0 0 -11 -1 -3 -9 -9 -14 -5 -4 -3 -4 -3 -5 -15 -2 -24 -45 -75 -89 -82 -83 -89 -82
0 0 0 0 0 0 0 0 0 0 0 0 0 0 -2 -1 0 -3 -1 0 0 0 0 -2 0 -21 -2 -3 -2 -3 -3 -2 -5 -5 -5 -4 -3 -20 -63 -121 -150 -202 -118 -52 0
0 0 0 0 0 0 0 0 0 0 0 0 -1 0 -3 0 -1 -1 0 0 0 0 0 -1 0 -16 -3 -1 -15 -3 -4 -2 -2 -1 0 -22 -3 -56 -111 -138 -186 0 -203 -206 -139
0 0 0 0 0 0 0 0 0 0 0 0 -1 -2 -2 -1 -1 -1 -1 -2 0 0 0 0 -1 -23 -12 -3 -11 -3 -4 -3 -3 0 -8 -2 -7 -80 -165 -192 0 0 0 0 0
Wind_Speed
37 35 31 28 27 28 28 28 26 26 25 25 25 26 27 27 26 23 25 22 20 20 22 23 22 20 24 29 31 33 45 54 52 51 49 39 44 38 39 42 33 30 31 21 8
36 36 33 30 29 28 27 26 26 26 26 25 24 25 26 26 27 23 18 16 17 18 21 20 21 19 23 29 31 36 46 53 43 45 41 46 38 39 36 40 43 34 23 18 12
35 35 33 30 28 27 26 26 26 26 27 25 23 24 23 24 23 19 14 15 17 19 21 22 21 22 26 27 32 39 54 43 45 43 40 42 44 38 39 40 39 43 30 23 18
33 35 31 28 26 25 25 24 25 26 27 25 23 23 22 20 28 18 14 15 20 21 19 21 20 23 27 32 32 43 45 50 44 41 42 47 45 44 44 39 33 32 38 26 23
39 35 31 27 25 25 25 24 24 25 26 24 22 21 20 20 21 16 15 18 19 19 20 23 24 25 32 31 35 40 44 41 47 44 42 43 48 44 43 39 24 22 26 26 25
38 38 31 28 26 25 25 24 24 24 24 21 21 18 20 23 17 16 17 20 21 20 20 19 22 23 30 33 33 33 42 46 43 48 46 44 48 44 44 36 34 30 30 29 28
35 36 33 28 26 25 24 24 25 24 22 19 19 17 18 17 16 16 19 22 22 21 22 17 21 21 23 30 34 35 42 39 48 45 50 44 53 57 45 38 40 36 32 31 29
33 33 32 27 25 24 24 24 24 23 19 18 17 18 19 14 16 17 18 20 19 19 18 19 19 24 27 30 33 36 42 48 44 46 45 43 64 54 46 42 37 34 31 31 29
31 31 30 27 24 24 24 25 24 21 19 18 17 18 18 16 19 21 16 20 19 18 17 17 16 21 26 33 40 40 46 47 46 40 44 47 55 49 45 45 43 38 34 30 29
32 31 28 25 24 25 25 24 24 20 20 18 16 19 16 21 22 19 16 16 16 18 18 15 17 23 29 33 46 42 45 47 46 42 45 56 54 34 37 41 45 42 38 32 30
33 31 26 25 24 24 24 25 30 27 24 24 19 16 19 20 17 16 15 15 14 15 19 14 15 24 31 35 38 42 43 45 43 42 41 58 55 52 36 33 42 42 40 35 30
30 27 26 25 24 22 21 28 30 26 31 18 13 14 12 16 19 15 14 14 13 17 15 11 5 6 22 27 36 40 40 44 42 38 45 45 56 53 51 42 35 40 40 37 30
26 27 27 24 23 23 25 25 22 22 26 20 18 18 19 15 17 16 12 12 11 11 10 5 7 11 22 31 32 36 34 37 40 40 43 39 48 52 52 45 38 36 38 37 33
27 31 26 24 25 27 27 24 21 20 28 29 25 21 18 19 15 15 10 9 10 7 5 5 9 5 4 13 33 31 35 27 33 35 43 42 48 50 51 50 45 37 37 35 34
29 31 25 22 28 29 27 22 21 20 34 32 28 19 18 17 10 13 12 8 6 4 7 9 8 8 16 26 31 32 27 29 27 31 35 39 42 42 44 46 47 42 37 36 33
26 31 26 26 24 27 23 22 21 29 34 31 27 26 19 19 10 12 11 8 5 5 9 6 11 14 21 24 31 27 32 34 23 28 40 34 43 31 44 45 42 39 35 34 32
23 28 28 27 31 24 22 25 31 37 35 33 36 29 20 18 20 13 8 6 9 11 12 11 12 15 19 24 27 26 20 22 24 31 36 30 36 18 39 39 37 36 33 32 30
26 24 28 32 26 23 25 29 37 37 35 33 30 26 23 26 17 4 4 5 10 9 5 12 15 18 18 24 26 37 29 17 26 32 24 25 35 25 25 30 35 32 28 29 29
25 24 34 34 27 24 29 36 37 37 35 35 30 27 25 26 4 12 4 8 14 9 13 12 16 14 17 24 27 30 32 21 16 19 23 27 22 19 21 25 30 31 28 28 27
29 26 39 33 25 27 33 36 34 32 33 29 32 26 25 14 13 18 8 9 11 7 5 12 15 15 15 19 28 27 23 16 18 23 23 25 23 19 20 24 27 30 27 25 24
29 27 35 34 25 34 38 35 33 29 32 29 28 25 21 13 22 22 16 21 22 8 9 11 14 17 16 19 26 25 26 20 17 18 19 26 19 15 16 17 20 25 24 22 23
31 32 34 34 37 34 39 34 30 31 28 25 22 22 21 6 21 20 16 15 17 9 8 12 14 17 16 19 24 27 24 23 17 17 14 19 18 12 12 13 15 17 20 19 20
34 29 32 35 39 39 36 33 30 30 30 27 24 21 16 6 16 21 19 23 16 11 11 10 15 17 17 21 27 26 24 24 15 16 14 19 18 14 11 12 12 14 15 17 17
32 35 31 34 35 35 36 35 35 28 26 27 21 19 19 7 14 22 18 14 16 13 11 13 13 13 14 10 24 25 24 24 23 18 15 5 13 17 13 14 15 14 14 16 15
35 32 31 33 34 34 32 32 35 36 26 26 23 23 20 13 16 16 24 23 20 14 11 12 12 12 16 16 20 21 23 24 24 19 18 12 14 14 13 14 15 17 16 16 14
34 33 28 26 28 31 30 33 32 32 27 27 26 22 15 6 8 24 25 21 18 14 14 11 10 16 18 18 23 22 21 22 23 20 20 17 14 12 13 14 15 15 16 16 16
30 26 27 26 30 29 31 29 28 27 25 23 23 21 17 10 19 28 28 27 22 21 18 13 8 9 18 14 17 22 25 22 20 20 17 17 12 12 13 14 15 16 16 15 16
Wind_Direction
358 5 11 16 15 13 13 12 12 10 7 4 360 356 353 348 345 342 332 333 329 324 318 308 300 282 268 262 257 258 252 250 250 249 251 254 249 249 250 249 254 254 256 261 261
10 5 8 12 13 12 13 14 14 12 8 5 3 358 356 353 346 344 354 354 345 337 323 305 293 282 268 260 257 251 251 251 256 255 255 249 252 249 248 248 244 249 256 255 246
13 8 6 12 13 13 15 14 14 11 9 6 5 0 359 357 350 356 8 359 346 333 322 310 293 283 270 266 255 253 251 256 255 256 255 251 249 251 247 247 245 243 247 245 242
17 10 11 15 15 16 15 14 12 10 8 8 6 3 2 4 345 360 5 353 341 329 323 313 294 278 273 264 263 257 256 253 257 254 253 249 250 247 244 246 255 247 245 240 239
8 10 13 16 17 15 14 13 11 9 8 8 8 8 8 358 357 10 5 351 340 330 318 309 295 282 270 272 264 259 256 256 252 253 252 251 245 245 244 243 250 246 244 241 241
12 7 12 14 15 14 13 12 9 9 7 10 12 14 8 353 14 11 358 347 337 328 318 310 301 290 283 270 265 269 260 256 254 248 250 248 244 244 242 243 244 247 245 244 241
16 11 9 14 16 15 14 11 9 7 10 16 16 17 3 1 14 5 352 343 336 331 316 311 304 292 291 278 269 267 259 259 250 248 245 249 244 237 240 242 241 244 243 244 241
18 16 13 15 16 15 13 11 8 9 17 20 20 16 7 24 8 354 350 346 344 338 326 319 306 292 284 280 275 264 258 252 249 244 244 242 235 237 238 238 239 239 242 243 242
19 17 15 15 15 14 13 11 13 18 24 23 22 18 15 20 6 360 0 353 355 352 341 328 311 292 284 272 266 257 252 249 248 246 238 234 235 240 236 235 237 237 240 241 241
16 15 16 16 15 13 12 13 20 29 24 26 28 19 17 5 5 6 10 7 2 0 353 334 312 290 276 264 254 253 248 248 245 242 236 233 234 242 234 235 235 236 236 239 238
14 14 15 15 14 14 15 17 9 9 10 4 9 9 4 11 7 19 19 19 14 6 351 351 323 292 273 262 258 255 249 246 244 240 239 232 233 231 234 239 234 233 233 235 235
13 12 13 14 14 16 22 11 11 6 1 17 24 9 8 15 11 20 32 25 25 11 23 31 29 299 283 268 255 249 245 243 242 243 236 236 232 232 233 236 237 233 231 231 231
10 10 12 15 19 23 13 12 18 16 7 20 22 13 18 24 14 16 42 36 29 26 45 116 170 139 213 231 248 243 241 241 239 235 232 236 233 229 230 233 236 235 230 229 229
7 9 15 22 24 17 16 18 23 25 10 16 17 25 23 16 22 34 55 55 54 68 103 115 97 119 117 185 219 234 228 242 244 228 222 229 227 226 226 228 230 230 225 225 226
7 13 23 32 18 15 13 24 26 31 8 9 15 23 13 12 17 44 60 80 64 124 121 80 73 112 155 194 200 216 229 230 235 218 221 221 230 225 222 223 224 226 224 224 225
6 21 31 28 25 20 26 26 28 16 11 9 12 3 7 17 35 40 60 100 123 155 182 144 107 151 187 211 201 197 211 221 228 216 221 220 219 223 216 218 220 223 223 222 223
12 29 31 29 17 22 27 23 17 14 8 8 1 6 13 23 25 40 37 86 81 66 98 120 135 152 172 183 216 205 216 214 215 217 219 217 220 247 218 220 221 220 220 220 221
21 32 30 25 25 31 24 17 14 12 10 8 8 12 22 15 29 235 221 127 105 96 109 91 88 133 124 157 192 192 193 222 215 211 212 214 221 228 230 221 221 221 219 221 221
27 36 23 22 29 30 22 18 14 11 9 7 10 17 21 14 24 256 229 195 60 98 80 87 61 83 112 151 205 195 206 242 237 224 212 215 229 232 227 217 219 220 220 220 221
26 30 19 24 32 28 23 20 17 17 13 15 12 21 11 17 268 278 233 4 92 188 196 101 91 99 107 154 199 222 216 226 229 216 211 215 218 222 215 216 221 218 219 221 221
26 25 20 22 35 29 23 21 19 21 18 20 14 13 17 29 289 283 263 306 313 210 233 127 106 86 98 146 202 221 218 234 239 232 229 211 217 234 225 225 219 216 220 221 221
21 21 20 22 25 26 22 21 21 23 24 25 24 24 28 312 283 272 262 280 286 230 163 117 116 94 115 129 212 218 223 223 238 230 252 223 226 237 235 230 226 222 223 225 221
15 22 24 26 22 23 23 25 25 21 21 26 27 30 32 6 274 272 275 294 281 260 253 174 92 89 96 177 196 222 224 226 249 240 241 236 220 234 247 243 239 231 228 225 222
16 14 22 27 29 23 22 23 23 24 25 23 24 34 23 358 259 261 264 261 267 230 246 142 133 143 91 292 204 217 226 225 226 231 236 267 218 231 246 247 246 246 241 232 224
15 18 21 15 19 21 23 23 20 21 28 26 32 28 24 36 281 289 280 285 293 207 253 253 181 196 225 229 223 224 221 225 227 243 237 252 245 241 251 252 256 252 247 235 224
13 17 20 19 21 20 24 22 21 19 23 24 22 19 18 6 241 265 275 267 254 223 269 256 157 163 176 227 218 224 229 228 231 241 244 252 254 258 264 266 259 256 250 241 235
18 22 23 22 19 22 21 20 17 18 26 25 18 14 20 33 270 265 253 242 215 231 242 233 210 213 113 254 230 231 225 233 238 239 250 250 264 263 266 273 267 259 251 246 241